Temp
63 63 63 63 63 64 64 64 64 64 64 64 64 64 63 63 63 69 75 87 86 82 81 90 90 90 91 88 92 81 64 61 64 68 69 80 79 89 91 86 88 90 81 81 84
63 63 63 63 63 63 63 63 63 63 63 63 63 63 63 63 67 74 86 84 82 82 88 87 86 89 84 87 90 76 65 69 79 72 73 78 82 83 81 80 77 80 83 84 83
62 62 62 62 62 63 63 63 63 63 62 62 62 63 63 63 68 80 86 85 82 82 90 91 91 88 84 88 89 83 73 84 84 82 83 79 84 87 78 71 74 78 79 81 81
62 62 62 62 62 62 62 62 62 62 62 62 62 63 63 66 66 88 82 83 82 89 89 88 86 82 80 80 89 79 89 88 88 90 87 84 86 82 83 80 84 83 84 81 77
61 61 61 61 61 61 62 61 61 61 61 62 62 63 63 64 73 87 82 82 86 88 86 85 82 83 79 86 88 84 85 89 90 89 89 90 82 80 84 89 88 87 84 81 79
61 60 60 61 61 61 61 61 60 60 61 62 63 63 60 63 92 89 87 83 88 87 85 87 85 90 84 84 82 88 89 83 86 86 88 82 81 84 84 90 89 85 81 80 80
60 60 60 60 60 61 60 59 59 60 61 62 65 69 68 72 95 91 91 84 85 89 84 91 92 85 85 81 91 88 81 77 73 81 84 84 74 77 83 87 86 86 82 82 82
60 60 60 60 60 60 59 58 59 60 62 64 65 66 64 92 92 94 93 89 91 90 91 93 93 87 80 86 86 81 79 63 73 78 81 78 62 77 84 83 82 86 83 83 82
59 59 59 59 59 58 57 57 59 62 65 65 60 61 69 90 90 94 95 91 89 90 91 100 88 77 81 73 69 74 64 67 71 78 80 77 68 79 83 84 81 83 82 82 81
59 59 59 58 58 57 56 57 61 62 64 73 78 66 76 84 90 93 95 96 89 87 87 84 76 68 69 63 57 65 71 76 71 78 81 77 75 80 82 83 82 80 81 81 81
59 58 58 58 57 56 57 65 63 63 70 70 73 77 89 91 94 90 95 91 89 81 69 77 64 60 68 73 77 78 75 73 77 84 78 75 75 77 82 83 80 77 78 81 80
59 58 58 57 57 56 53 65 77 83 71 77 83 83 89 92 86 90 94 81 79 69 75 68 63 74 81 81 79 77 73 72 78 84 78 75 74 79 81 81 82 80 81 82 83
58 58 57 56 56 54 64 74 87 87 69 80 84 81 87 88 84 84 87 84 77 72 73 66 73 84 81 77 76 74 68 72 72 79 78 75 68 73 80 82 84 84 85 86 84
58 58 56 55 53 72 74 81 84 87 60 74 78 84 88 88 80 95 93 85 79 73 76 72 81 81 79 76 75 65 81 81 78 70 59 74 54 69 74 78 82 84 84 84 86
58 57 55 55 53 69 84 90 88 82 49 82 82 96 89 81 82 85 94 85 75 76 73 71 77 76 75 77 79 72 81 77 77 67 62 67 57 66 72 71 77 82 85 86 88
57 56 55 57 56 68 80 86 81 59 55 78 84 81 79 81 84 87 86 86 85 78 79 76 86 80 78 83 82 84 76 73 70 63 51 64 61 62 68 75 79 84 86 88 86
56 54 53 67 75 84 86 78 58 55 82 77 74 80 77 76 79 79 79 73 67 58 62 73 77 82 84 71 79 72 61 50 48 49 50 62 60 68 76 81 82 83 84 88 89
54 53 57 69 81 84 80 65 53 73 78 85 82 80 74 78 77 80 75 70 75 72 67 61 61 78 83 75 69 68 64 52 46 46 54 66 62 71 85 86 86 87 86 89 88
53 68 72 75 72 77 69 57 62 73 81 81 81 74 73 79 78 76 73 73 77 76 62 61 66 84 86 82 78 67 59 70 57 56 53 59 68 77 81 81 83 84 86 85 88
58 71 79 89 85 78 64 56 68 80 82 82 69 75 69 75 74 73 71 80 79 83 81 70 61 77 84 84 80 72 74 59 57 46 46 57 60 61 74 79 81 80 82 83 84
63 70 87 93 88 69 59 66 76 86 87 78 73 71 73 72 75 74 73 82 86 85 84 78 67 71 74 70 70 67 63 63 61 57 49 48 58 72 76 79 80 80 82 82 83
68 66 88 91 67 68 66 73 70 82 86 80 78 75 73 75 72 72 74 80 89 83 77 78 68 59 68 80 82 76 70 66 55 54 56 55 57 80 79 81 81 81 83 82 82
60 70 90 88 62 67 74 78 82 82 81 77 77 79 79 71 64 72 77 86 88 79 68 71 63 55 61 69 74 71 73 69 67 63 57 55 59 82 85 82 82 79 80 80 82
62 65 76 77 77 72 69 71 74 84 83 82 76 77 73 69 73 68 74 83 87 80 74 75 65 60 54 61 68 70 75 75 70 60 57 60 66 72 75 78 77 79 78 81 81
66 68 69 64 66 69 71 71 71 70 79 80 73 75 71 63 67 67 73 73 79 75 76 71 59 60 66 72 74 73 74 76 71 68 59 65 63 70 75 79 80 79 83 82 80
63 61 66 63 69 69 67 67 71 74 73 71 69 75 73 64 62 60 65 64 65 73 70 71 59 59 60 72 73 70 74 75 75 74 73 70 67 73 77 77 77 79 82 82 81
68 69 63 60 66 66 68 71 72 72 74 76 73 69 69 71 73 69 70 72 72 66 64 63 61 57 53 66 66 60 67 72 73 75 70 64 69 76 74 77 75 75 77 77 79
MSLP
1018.40 1018.13 1017.88 1017.65 1017.40 1017.09 1016.81 1016.56 1016.31 1015.96 1015.66 1015.37 1015.06 1014.81 1014.51 1014.08 1013.22 1012.97 1011.61 1009.12 1008.86 1008.79 1009.23 1008.86 1008.53 1007.92 1007.49 1007.18 1007.71 1009.14 1010.18 1010.81 1010.83 1010.24 1008.83 1007.53 1007.12 1006.41 1006.45 1006.94 1007.35 1007.13 1008.65 1010.42 1011.63
1018.42 1018.14 1017.87 1017.60 1017.36 1017.07 1016.76 1016.45 1016.23 1015.92 1015.61 1015.31 1015.03 1014.77 1014.52 1014.18 1013.36 1011.44 1008.76 1008.50 1008.40 1008.76 1008.98 1008.65 1007.83 1007.31 1007.07 1006.44 1006.39 1007.39 1008.42 1008.39 1008.12 1008.69 1008.20 1007.24 1006.88 1006.73 1007.01 1007.63 1008.48 1009.08 1009.84 1010.82 1011.72
1018.46 1018.16 1017.83 1017.52 1017.24 1016.96 1016.65 1016.30 1016.07 1015.84 1015.60 1015.31 1015.00 1014.78 1014.49 1014.26 1012.97 1008.82 1006.65 1007.84 1008.26 1008.58 1008.67 1008.40 1007.78 1007.26 1006.37 1005.84 1005.60 1005.74 1006.37 1006.40 1006.84 1006.82 1007.06 1006.70 1006.28 1006.61 1007.17 1008.31 1008.52 1008.97 1010.21 1011.05 1011.70
1018.43 1018.11 1017.82 1017.46 1017.10 1016.80 1016.50 1016.19 1015.93 1015.70 1015.44 1015.23 1014.98 1014.76 1014.40 1013.96 1011.11 1007.32 1006.83 1007.38 1008.09 1008.36 1008.64 1008.23 1007.61 1006.98 1006.33 1005.71 1004.70 1005.07 1005.18 1005.68 1005.68 1005.64 1005.88 1005.96 1006.22 1006.52 1006.72 1007.03 1007.65 1008.44 1009.61 1010.72 1011.60
1018.42 1018.07 1017.72 1017.37 1016.99 1016.62 1016.29 1015.96 1015.70 1015.51 1015.28 1015.05 1014.82 1014.63 1014.09 1012.89 1009.22 1007.14 1007.34 1007.71 1008.14 1008.36 1008.41 1008.12 1007.41 1006.58 1006.04 1005.22 1004.53 1004.45 1005.10 1005.39 1005.41 1005.63 1005.45 1005.68 1006.29 1006.42 1006.36 1006.36 1007.33 1008.35 1009.53 1010.32 1010.97
1018.37 1017.97 1017.61 1017.23 1016.82 1016.45 1016.09 1015.76 1015.49 1015.26 1015.04 1014.85 1014.62 1014.59 1013.93 1011.08 1006.52 1006.52 1007.14 1007.80 1007.65 1008.02 1008.08 1007.72 1006.77 1005.93 1005.75 1005.21 1004.82 1004.57 1004.86 1005.67 1005.76 1005.79 1005.78 1006.04 1006.35 1006.33 1006.51 1006.34 1007.17 1008.24 1009.12 1009.89 1010.69
1018.32 1017.86 1017.42 1017.04 1016.59 1016.17 1015.84 1015.53 1015.19 1014.88 1014.74 1014.58 1014.37 1014.12 1012.63 1008.77 1005.95 1006.28 1006.61 1007.18 1007.27 1007.41 1007.69 1006.75 1006.28 1006.20 1005.85 1005.70 1005.05 1004.71 1005.30 1006.32 1006.88 1006.74 1006.37 1006.11 1006.46 1006.28 1006.46 1006.41 1006.88 1007.61 1008.77 1009.51 1010.22
1018.19 1017.72 1017.25 1016.82 1016.36 1015.94 1015.56 1015.14 1014.75 1014.41 1014.26 1014.11 1014.08 1013.66 1010.80 1006.18 1006.04 1006.19 1006.18 1006.58 1006.82 1006.92 1006.98 1006.33 1005.98 1005.88 1006.05 1005.92 1005.36 1005.16 1005.30 1006.73 1006.08 1005.99 1006.87 1006.44 1006.54 1006.01 1006.18 1006.35 1006.72 1007.18 1008.16 1008.93 1009.67
1018.00 1017.55 1017.05 1016.61 1016.14 1015.64 1015.19 1014.68 1014.19 1013.87 1013.65 1013.83 1013.86 1012.84 1008.91 1005.45 1005.40 1005.45 1005.35 1005.88 1006.33 1006.65 1006.55 1006.24 1006.04 1006.38 1006.46 1006.61 1006.43 1005.56 1005.56 1006.11 1006.49 1005.91 1006.26 1006.06 1005.94 1005.53 1005.59 1006.02 1006.41 1006.83 1007.70 1008.45 1009.28
1017.72 1017.29 1016.80 1016.33 1015.90 1015.40 1014.70 1013.92 1013.55 1013.48 1013.35 1013.16 1012.16 1011.66 1007.85 1005.18 1004.73 1004.91 1004.96 1005.13 1005.82 1006.34 1006.60 1006.52 1006.65 1007.10 1007.19 1007.12 1006.68 1005.68 1005.09 1005.09 1005.22 1004.91 1005.06 1005.11 1004.82 1004.95 1004.99 1005.52 1005.85 1006.50 1007.05 1007.77 1008.50
1017.37 1016.90 1016.38 1015.97 1015.68 1015.39 1014.54 1013.26 1013.46 1012.85 1011.85 1009.89 1008.65 1007.29 1005.07 1004.12 1004.02 1004.60 1004.63 1004.95 1005.34 1006.08 1006.63 1006.71 1007.32 1007.33 1006.89 1006.28 1005.54 1004.91 1004.37 1004.00 1003.78 1003.86 1004.29 1004.27 1004.39 1004.89 1004.61 1004.93 1005.31 1005.87 1006.47 1007.00 1007.74
1017.00 1016.46 1016.05 1015.58 1015.31 1015.20 1015.24 1013.10 1009.52 1008.44 1008.13 1007.49 1006.60 1006.22 1004.79 1004.06 1004.02 1004.16 1004.33 1005.10 1005.47 1006.17 1006.54 1006.92 1006.73 1006.29 1005.78 1005.23 1004.83 1004.33 1004.06 1003.68 1003.28 1003.10 1003.67 1003.82 1003.85 1003.65 1004.12 1004.22 1004.31 1004.92 1005.58 1006.05 1006.64
1016.72 1016.11 1015.60 1015.18 1014.81 1014.66 1013.05 1010.52 1008.28 1007.82 1007.43 1005.06 1004.44 1004.76 1003.96 1003.53 1003.64 1003.80 1004.29 1004.77 1005.31 1005.98 1006.17 1006.24 1005.54 1005.23 1004.96 1004.54 1004.21 1003.89 1003.60 1003.35 1003.46 1003.25 1003.39 1003.75 1003.74 1003.39 1002.67 1003.12 1003.58 1003.74 1004.17 1004.98 1005.71
1016.42 1015.78 1015.28 1014.76 1014.59 1012.09 1010.64 1007.95 1007.86 1007.77 1007.23 1003.86 1003.04 1003.10 1003.22 1003.24 1003.32 1002.94 1003.49 1004.55 1004.97 1005.26 1005.48 1005.29 1004.55 1004.22 1003.90 1003.80 1003.56 1003.67 1003.16 1003.07 1003.44 1003.85 1004.16 1004.05 1004.36 1003.15 1002.12 1002.26 1002.82 1002.99 1003.22 1003.97 1004.80
1015.91 1015.36 1014.96 1014.90 1014.09 1011.67 1008.44 1007.10 1007.02 1007.16 1006.25 1002.52 1002.16 1001.32 1002.04 1002.88 1002.38 1002.44 1003.06 1003.95 1004.51 1004.68 1004.74 1004.32 1003.73 1003.28 1002.99 1002.78 1002.84 1003.16 1002.92 1003.30 1003.82 1004.48 1004.72 1004.52 1004.65 1002.74 1002.57 1002.33 1002.10 1002.14 1002.32 1002.75 1003.48
1015.23 1014.86 1014.50 1013.92 1013.67 1009.87 1008.15 1007.53 1007.21 1007.17 1003.98 1001.57 1001.35 1001.38 1002.08 1002.56 1002.57 1002.29 1002.92 1003.58 1003.98 1004.52 1004.25 1003.85 1002.74 1002.49 1002.00 1001.92 1002.21 1002.62 1003.26 1003.95 1004.56 1005.28 1005.61 1004.46 1004.78 1002.50 1001.60 1000.55 1001.01 1001.04 1001.40 1001.81 1002.24
1014.32 1014.12 1014.27 1012.57 1010.11 1008.23 1007.99 1007.99 1007.50 1005.49 1001.36 1001.12 1001.31 1001.48 1002.04 1002.52 1002.61 1002.54 1002.96 1003.73 1004.39 1004.73 1004.60 1003.70 1002.56 1001.64 1001.42 1001.72 1002.09 1002.72 1003.92 1005.31 1006.32 1006.41 1005.80 1003.85 1003.95 1001.72 1000.16 999.39 999.66 1000.10 1000.44 1000.76 1001.20
1013.00 1012.65 1011.68 1010.76 1008.80 1008.47 1008.07 1008.19 1006.76 1003.33 1001.53 1000.24 1000.25 1001.07 1001.64 1001.97 1002.29 1002.25 1002.66 1003.36 1003.74 1004.24 1004.33 1003.92 1002.49 1001.05 1000.61 1001.28 1002.13 1002.90 1003.90 1005.29 1006.21 1006.32 1005.50 1003.11 1002.28 1000.33 999.38 998.59 998.55 998.92 999.30 999.90 1000.64
1012.32 1010.92 1010.43 1008.72 1008.94 1009.02 1008.72 1007.79 1004.96 1002.84 1001.77 1000.71 1000.17 1000.63 1001.01 1001.09 1001.29 1001.82 1002.09 1002.33 1002.47 1002.99 1003.71 1002.96 1001.42 1000.08 999.61 1000.57 1001.78 1002.44 1003.36 1003.90 1005.32 1005.60 1005.38 1003.59 1001.69 999.56 998.41 998.70 998.53 998.68 998.94 999.29 999.98
1012.99 1010.53 1008.18 1007.04 1007.91 1008.35 1008.42 1006.91 1004.56 1003.00 1001.72 1001.07 1001.34 1000.92 1000.99 1000.86 1000.88 1001.12 1001.17 1000.73 1000.84 1000.99 1001.59 1001.95 1002.00 1000.37 999.95 1000.10 1000.91 1001.80 1002.71 1003.85 1004.92 1005.96 1005.76 1003.85 1002.00 1000.42 999.35 999.43 998.86 998.61 998.69 999.00 999.55
1012.49 1009.60 1006.26 1006.46 1007.20 1008.00 1007.67 1005.86 1004.04 1002.44 1001.40 1001.37 1001.63 1001.64 1001.64 1001.36 1001.25 1001.00 999.95 999.44 999.26 999.51 999.98 1000.89 1001.57 1000.75 1000.53 1000.47 1000.84 1001.60 1002.41 1003.37 1004.49 1005.21 1005.42 1004.39 1002.58 1000.16 999.48 999.10 998.85 998.76 998.82 999.18 999.56
1012.39 1009.13 1006.20 1006.33 1007.33 1007.17 1006.60 1005.50 1003.82 1002.45 1001.48 1001.51 1001.65 1001.93 1001.93 1001.75 1001.37 1001.00 1000.19 999.40 998.23 998.29 999.05 999.71 1000.72 1001.39 1000.77 1000.19 1000.25 1000.66 1001.56 1002.55 1004.29 1004.64 1004.34 1003.59 1002.04 999.93 999.10 998.90 998.80 998.81 999.04 999.55 1000.02
1013.86 1009.58 1006.01 1006.05 1006.81 1006.63 1005.83 1004.85 1003.55 1002.45 1001.48 1001.57 1001.97 1002.07 1002.26 1002.27 1002.19 1001.26 1000.31 999.57 999.10 999.21 999.81 999.58 1000.35 1001.21 1001.37 1000.85 1000.10 1000.52 1000.78 1001.31 1002.25 1002.88 1003.48 1003.35 1001.47 1000.08 999.36 999.49 999.20 999.38 999.30 999.67 1000.05
1014.39 1010.08 1006.93 1006.59 1006.46 1006.69 1006.18 1005.17 1003.89 1002.78 1002.09 1001.71 1002.35 1002.69 1002.94 1003.00 1002.66 1002.20 1001.16 1000.16 999.95 999.96 1000.07 1000.07 1000.84 1001.62 1001.95 1001.66 1001.13 1000.96 1000.73 1000.58 1001.27 1002.08 1002.34 1002.04 1001.30 1000.90 1000.77 999.97 999.93 999.55 999.51 999.84 1000.20
1013.97 1011.22 1010.71 1008.69 1008.05 1007.79 1006.86 1005.88 1004.90 1004.06 1003.25 1002.88 1002.86 1003.18 1003.56 1003.86 1003.62 1003.28 1002.66 1001.82 1001.02 1000.50 1000.40 1000.95 1001.75 1001.98 1001.97 1001.68 1001.19 1001.28 1001.00 1000.70 1000.74 1000.83 1001.30 1001.25 1000.98 1000.90 1000.41 1000.03 999.97 999.94 999.94 1000.07 1000.51
1014.42 1013.65 1012.22 1011.10 1009.45 1008.29 1007.05 1006.32 1005.46 1004.75 1004.45 1003.94 1004.04 1003.92 1004.15 1004.46 1005.04 1005.06 1004.77 1004.16 1003.20 1002.37 1002.29 1001.83 1002.25 1002.77 1002.87 1002.42 1001.80 1001.25 1001.06 1000.71 1000.69 1000.78 1000.82 1000.78 1000.45 999.90 999.76 999.87 999.80 1000.00 1000.04 1000.80 1000.61
1015.60 1014.81 1013.72 1011.85 1010.32 1009.17 1007.84 1006.55 1006.13 1005.79 1005.45 1005.30 1005.25 1005.20 1004.86 1005.08 1005.31 1005.37 1005.36 1005.07 1004.50 1004.12 1003.76 1003.48 1003.60 1003.68 1003.49 1003.05 1002.43 1001.60 1000.91 1000.81 1000.64 1000.64 1000.87 1001.00 1000.84 1000.14 1000.29 1000.48 1000.78 1000.94 1001.32 1001.56 1001.52
Wind_Speed
13 13 12 12 12 12 12 12 12 12 13 13 14 13 13 15 17 4 7 8 6 9 4 6 10 15 17 13 8 9 5 4 7 8 6 11 5 5 13 17 14 6 18 18 13
13 13 13 13 12 12 12 12 12 12 13 14 14 14 12 12 5 10 11 9 10 10 4 9 14 15 9 10 6 5 3 7 11 6 9 8 8 4 8 7 5 15 21 20 15
14 14 14 14 13 13 13 13 13 13 13 13 14 13 12 9 5 10 17 17 11 11 6 11 16 20 11 9 14 4 4 5 8 12 12 7 9 7 9 5 7 13 20 18 14
14 14 14 14 14 14 14 14 13 14 14 13 13 12 11 5 1 1 7 12 10 7 6 7 9 11 8 9 3 2 7 4 1 3 5 2 7 4 5 5 10 13 24 19 15
14 14 14 14 15 15 15 14 14 15 15 14 12 11 6 4 11 6 9 9 6 4 8 10 13 11 11 8 6 7 9 1 5 5 3 3 7 6 6 7 11 11 21 17 13
15 15 15 15 16 16 16 14 15 16 15 12 10 8 3 6 2 13 10 7 8 8 8 12 11 13 6 10 6 5 1 9 5 4 7 5 1 4 8 8 15 19 19 17 14
15 16 16 16 16 17 16 15 17 17 14 11 8 5 6 16 3 12 12 8 8 9 9 14 17 7 8 9 11 0 4 7 9 12 5 4 4 4 5 3 12 10 19 19 16
16 16 17 17 17 17 16 16 18 16 12 10 4 5 9 8 15 10 12 9 11 10 13 15 12 7 4 10 12 8 7 4 4 14 7 6 8 7 6 6 8 9 18 16 16
15 16 17 17 17 16 16 18 19 14 9 2 4 4 10 2 7 14 8 11 11 10 11 15 5 4 7 7 8 7 8 5 4 12 11 7 7 9 8 8 10 8 18 15 14
16 16 16 16 15 16 20 19 8 11 4 7 8 4 7 9 8 9 11 10 10 11 12 8 2 3 5 3 8 7 7 10 6 8 14 8 10 12 12 13 12 8 11 15 18
18 17 17 16 14 12 12 2 0 2 6 12 10 7 6 10 3 8 10 8 7 7 7 8 3 7 13 14 17 14 8 3 0 9 7 5 7 13 13 10 9 11 12 12 21
20 19 17 16 15 11 5 5 10 9 8 21 20 19 19 9 7 9 10 8 7 7 8 6 10 14 16 15 13 11 9 6 2 8 6 5 9 10 15 14 12 13 15 16 15
20 20 18 16 15 6 8 11 10 13 5 10 18 10 14 6 7 10 11 9 7 9 10 10 13 17 17 12 10 9 6 4 5 5 1 5 10 7 9 17 13 11 13 17 20
20 20 18 18 4 3 6 11 15 14 4 7 9 7 15 6 9 12 15 9 7 12 13 10 17 17 12 11 8 8 10 5 9 3 5 2 8 12 6 18 17 17 13 16 18
21 19 16 6 9 5 6 8 2 2 4 11 11 7 9 11 5 10 13 8 12 12 6 12 11 10 9 8 6 9 10 5 7 4 5 7 1 14 6 8 13 16 16 13 20
23 18 14 4 5 12 12 14 0 1 8 9 6 6 9 9 15 7 10 6 7 12 14 11 11 7 10 8 8 7 5 7 5 1 4 12 6 11 7 21 16 15 13 15 13
26 17 6 7 5 8 7 4 1 5 6 10 7 12 9 9 13 5 13 9 7 4 9 11 16 11 7 2 7 3 4 3 5 2 9 8 5 14 5 11 16 18 13 18 14
31 19 10 8 7 10 4 2 5 10 10 6 14 14 11 12 11 12 10 9 10 12 10 7 10 19 11 10 9 8 10 8 8 2 5 8 7 8 9 8 9 9 15 16 13
30 3 4 7 12 5 1 4 6 5 13 10 12 13 9 10 10 12 10 12 12 14 10 6 9 14 17 7 12 6 4 11 4 6 4 5 10 6 8 7 6 6 7 9 14
6 4 7 7 11 4 1 6 7 11 17 8 7 8 12 7 14 13 11 15 15 16 17 10 9 10 6 10 9 9 7 4 4 2 6 7 7 3 9 7 4 2 4 7 8
4 3 5 12 7 1 4 6 11 19 8 5 8 12 14 13 10 8 11 17 16 19 18 15 8 15 4 4 8 3 4 4 2 3 3 2 5 7 9 9 6 3 2 8 10
6 4 6 7 3 4 7 7 8 18 10 6 4 7 9 14 11 10 11 9 4 4 9 12 8 6 12 11 9 10 11 9 7 8 4 6 9 8 9 7 7 5 4 9 9
6 5 5 6 3 7 12 14 15 15 9 2 9 8 10 7 7 8 12 14 8 8 4 3 3 3 8 10 7 7 8 8 6 3 5 5 9 3 9 5 7 3 3 8 9
4 5 2 3 6 8 11 11 14 15 14 3 4 9 9 9 11 9 13 11 12 5 3 6 1 5 7 8 4 6 9 12 8 4 6 5 5 13 11 9 8 9 4 8 8
4 3 5 5 9 15 13 11 14 15 15 13 4 4 7 8 10 9 10 14 15 5 4 3 2 5 8 10 14 12 10 14 10 6 4 8 2 8 11 7 7 3 1 4 6
4 5 7 10 11 13 9 8 13 13 10 7 11 14 11 6 5 7 9 6 6 12 11 6 4 4 7 10 16 14 12 14 12 9 7 6 7 2 4 3 3 4 6 6 6
5 5 4 8 8 8 10 8 12 13 10 15 15 11 8 10 9 4 6 10 13 8 8 4 4 3 7 8 9 12 7 10 13 10 4 5 8 6 5 8 7 10 9 7 8
Wind_Direction
359 357 354 350 346 342 338 335 332 328 325 325 325 328 329 326 309 205 238 238 204 182 198 262 230 244 255 254 189 177 91 180 200 220 258 316 293 264 78 74 30 82 126 125 124
355 352 350 346 342 338 334 329 328 324 322 322 324 328 329 329 285 253 240 214 138 158 220 241 256 240 245 250 222 140 141 192 195 146 166 267 192 276 70 66 53 91 111 127 140
351 347 343 340 337 334 331 326 324 321 319 319 322 325 324 315 280 242 202 204 168 170 260 279 284 292 290 278 247 169 175 42 150 196 207 220 80 124 121 243 244 142 136 141 152
348 344 340 337 333 329 325 322 320 319 318 316 316 320 317 265 304 41 87 158 164 183 239 270 275 276 280 278 139 224 102 114 0 315 149 31 153 123 161 201 181 185 147 151 161
347 341 337 334 330 324 321 319 318 317 315 313 313 321 307 228 252 148 142 139 155 181 221 239 263 263 265 316 330 220 112 245 131 264 151 148 39 313 136 226 150 148 143 155 160
344 339 335 330 326 322 319 316 313 312 311 309 311 314 242 252 186 150 162 152 202 187 214 243 254 256 312 310 312 314 65 56 30 326 92 90 338 12 117 139 131 141 154 158 162
341 335 331 328 324 321 317 311 309 308 305 302 296 268 261 242 111 163 157 184 216 182 228 243 251 281 318 306 297 192 292 45 6 331 308 125 332 216 166 185 143 161 160 162 166
336 332 328 326 323 318 312 306 304 301 299 293 225 243 254 253 244 241 185 179 194 232 225 262 291 284 316 305 300 293 239 116 226 263 255 106 263 263 218 209 168 168 160 158 171
331 328 325 323 318 314 309 301 297 289 288 198 190 234 262 263 209 216 218 190 189 219 242 252 291 348 325 280 295 276 240 162 250 222 228 176 231 229 217 203 181 181 159 163 168
330 326 321 319 318 318 314 293 279 307 223 192 262 273 256 228 194 207 235 215 181 206 224 241 333 255 279 265 249 271 279 168 180 224 218 212 281 184 207 205 189 163 159 162 169
328 325 321 319 320 324 337 280 331 210 246 200 192 234 259 224 156 194 201 226 188 181 211 220 189 233 237 234 244 267 289 358 173 188 171 200 267 191 193 191 197 173 164 168 172
327 324 321 318 319 318 290 244 255 333 283 222 245 231 265 269 170 196 166 180 185 204 214 248 214 231 247 256 259 266 286 267 229 245 149 210 246 260 177 197 193 172 173 171 172
325 322 320 316 314 280 224 240 283 311 284 270 205 218 242 177 218 202 174 205 191 223 221 206 240 215 236 251 274 282 266 335 288 306 253 286 298 262 236 185 188 192 179 180 173
323 321 321 322 305 284 230 244 237 257 306 267 142 214 236 170 258 231 183 182 236 210 225 228 236 247 250 226 210 265 272 235 251 234 237 245 287 295 242 176 184 191 195 174 177
323 320 317 314 318 263 345 334 9 34 303 129 168 169 176 168 262 199 172 196 229 253 204 251 240 255 256 265 256 237 257 291 303 334 12 294 322 273 160 192 187 193 190 186 182
321 320 320 182 216 246 303 303 213 259 246 173 117 164 180 200 244 231 156 182 221 262 276 260 260 250 225 230 236 223 333 342 333 345 316 243 183 273 247 190 190 196 183 190 176
318 312 280 300 230 319 228 293 255 230 144 155 171 169 213 190 234 235 170 184 202 224 261 276 268 260 237 263 318 276 123 328 328 310 230 241 199 230 214 139 180 194 196 189 190
318 313 211 226 266 301 279 276 254 278 288 224 162 167 180 208 209 246 176 204 201 232 277 248 277 232 213 181 196 228 171 164 225 243 267 316 191 243 186 179 162 172 182 185 182
314 147 214 239 220 258 262 222 241 10 329 355 347 174 198 198 186 202 223 200 210 193 209 298 273 314 165 157 157 257 282 217 239 286 354 272 317 324 135 132 131 185 199 186 177
310 268 231 171 177 222 218 249 292 300 290 23 335 318 324 244 190 179 208 212 216 206 197 231 271 278 200 169 184 161 228 0 328 247 278 292 293 259 94 114 99 59 86 166 152
262 265 95 151 158 217 230 247 287 299 341 38 330 320 319 319 334 260 211 226 213 220 204 209 190 278 348 185 176 213 241 270 141 155 182 313 274 202 156 153 159 83 119 154 141
316 283 155 153 177 216 230 248 268 286 305 332 263 268 288 302 311 315 321 325 292 274 194 200 181 215 251 261 204 192 187 188 139 270 221 167 266 300 164 157 117 80 96 111 124
314 268 185 181 252 240 265 287 281 280 258 260 295 326 328 328 337 323 319 320 352 45 28 332 265 206 305 318 321 196 214 211 202 194 207 150 263 183 76 80 26 323 208 157 155
286 297 200 181 233 276 290 285 300 320 321 244 329 315 314 323 312 301 312 304 314 89 311 33 312 170 195 231 278 352 314 301 205 186 231 221 284 62 1 4 359 343 116 164 156
234 344 38 331 338 324 323 329 324 320 320 326 259 244 285 286 281 294 333 344 349 216 132 93 275 305 293 291 296 299 300 294 322 249 192 263 233 145 175 178 243 91 224 238 146
10 349 345 297 307 316 292 275 273 283 312 329 360 339 357 43 70 322 356 4 285 341 348 312 246 282 286 282 281 290 294 297 300 307 287 301 303 352 349 193 199 261 97 96 112
352 342 279 289 297 291 316 321 349 5 347 340 352 347 337 13 3 341 301 287 284 297 319 309 342 256 257 254 275 275 224 270 287 290 285 311 263 330 11 55 78 78 60 47 44